Time,TemperatureF,DewpointF,PressureIn,WindDirection,WindDirectionDegrees,WindSpeedMPH,WindSpeedGustMPH,Humidity,HourlyPrecipIn,Conditions,Clouds,dailyrainin,SoftwareType,DateUTC
2013-03-20 00:04:00,69.1,61.2,30.00,ENE,78,2.0,3.0,76,0.00,,,0.00,meteohub,2013-03-20 10:04:00,
2013-03-20 00:09:00,68.9,61.0,30.00,East,82,0.0,4.0,76,0.00,,,0.00,meteohub,2013-03-20 10:09:00,
2013-03-20 00:14:00,68.9,61.3,30.00,NE,56,0.0,4.0,77,0.00,,,0.00,meteohub,2013-03-20 10:14:00,
2013-03-20 00:20:00,69.1,61.5,30.00,ENE,72,2.0,4.0,77,0.00,,,0.00,meteohub,2013-03-20 10:20:00,
2013-03-20 00:25:00,69.1,61.2,30.00,ENE,58,2.0,4.0,76,0.00,,,0.00,meteohub,2013-03-20 10:25:00,
2013-03-20 00:30:00,68.7,60.4,30.00,East,81,2.0,4.0,75,0.00,,,0.00,meteohub,2013-03-20 10:30:00,
2013-03-20 00:35:00,68.7,60.4,29.99,ENE,73,1.0,4.0,75,0.00,,,0.00,meteohub,2013-03-20 10:35:00,
2013-03-20 00:40:00,68.5,60.3,29.99,ENE,72,1.0,4.0,75,0.00,,,0.00,meteohub,2013-03-20 10:40:00,
2013-03-20 00:46:00,68.4,60.1,29.99,East,79,0.0,4.0,75,0.00,,,0.00,meteohub,2013-03-20 10:46:00,
2013-03-20 00:51:00,68.4,60.1,29.99,ENE,73,1.0,4.0,75,0.00,,,0.00,meteohub,2013-03-20 10:51:00,
2013-03-20 00:56:00,68.4,59.7,29.99,ENE,68,2.0,2.0,74,0.00,,,0.00,meteohub,2013-03-20 10:56:00,
2013-03-20 01:01:00,68.2,59.5,29.99,ENE,68,1.0,3.0,74,0.00,,,0.00,meteohub,2013-03-20 11:01:00,
2013-03-20 01:07:00,68.2,59.5,29.99,ENE,70,0.0,3.0,74,0.00,,,0.00,meteohub,2013-03-20 11:07:00,
2013-03-20 01:12:00,68.0,59.0,29.99,ENE,65,0.0,2.0,73,0.00,,,0.00,meteohub,2013-03-20 11:12:00,
2013-03-20 01:17:00,68.0,58.6,29.99,ENE,62,0.0,2.0,72,0.00,,,0.00,meteohub,2013-03-20 11:17:00,
2013-03-20 01:22:00,68.2,58.5,29.99,NE,56,1.0,2.0,71,0.00,,,0.00,meteohub,2013-03-20 11:22:00,
2013-03-20 01:27:00,68.4,58.3,29.98,ENE,63,3.0,3.0,70,0.00,,,0.00,meteohub,2013-03-20 11:27:00,
2013-03-20 01:32:00,68.5,57.6,29.98,ENE,67,0.0,3.0,68,0.00,,,0.00,meteohub,2013-03-20 11:32:00,
2013-03-20 01:37:00,68.7,57.7,29.98,ESE,115,1.0,4.0,68,0.00,,,0.00,meteohub,2013-03-20 11:37:00,
2013-03-20 01:42:00,68.9,57.6,29.98,ENE,68,3.0,4.0,67,0.00,,,0.00,meteohub,2013-03-20 11:42:00,
2013-03-20 01:48:00,69.3,57.4,29.98,ENE,78,2.0,4.0,66,0.00,,,0.00,meteohub,2013-03-20 11:48:00,
2013-03-20 01:53:00,69.6,57.4,29.98,ENE,67,3.0,4.0,65,0.00,,,0.00,meteohub,2013-03-20 11:53:00,
2013-03-20 01:58:00,69.8,57.6,29.97,ENE,72,1.0,5.0,65,0.00,,,0.00,meteohub,2013-03-20 11:58:00,
2013-03-20 02:03:00,70.0,57.2,29.97,ENE,65,1.0,5.0,64,0.00,,,0.00,meteohub,2013-03-20 12:03:00,
2013-03-20 02:08:00,70.0,57.2,29.97,ENE,68,2.0,5.0,64,0.00,,,0.00,meteohub,2013-03-20 12:08:00,
2013-03-20 02:13:00,69.8,57.0,29.97,ENE,68,1.0,4.0,64,0.00,,,0.00,meteohub,2013-03-20 12:13:00,
2013-03-20 02:19:00,69.6,56.8,29.97,ENE,65,2.0,4.0,64,0.00,,,0.00,meteohub,2013-03-20 12:19:00,
2013-03-20 02:24:00,69.3,56.5,29.97,ENE,72,2.0,3.0,64,0.00,,,0.00,meteohub,2013-03-20 12:24:00,
2013-03-20 02:29:00,69.3,56.5,29.97,East,96,1.0,4.0,64,0.00,,,0.00,meteohub,2013-03-20 12:29:00,
2013-03-20 02:34:00,69.1,56.5,29.97,East,84,3.0,4.0,64,0.00,,,0.00,meteohub,2013-03-20 12:34:00,
2013-03-20 02:39:00,68.7,56.1,29.97,East,98,1.0,4.0,64,0.00,,,0.00,meteohub,2013-03-20 12:39:00,
2013-03-20 02:45:00,68.5,55.9,29.96,ENE,72,2.0,4.0,64,0.00,,,0.00,meteohub,2013-03-20 12:45:00,
2013-03-20 02:50:00,68.7,55.6,29.96,ENE,65,3.0,4.0,63,0.00,,,0.00,meteohub,2013-03-20 12:50:00,
2013-03-20 02:55:00,68.5,55.4,29.96,East,82,1.0,4.0,63,0.00,,,0.00,meteohub,2013-03-20 12:55:00,
2013-03-20 03:00:00,68.5,55.9,29.96,East,97,1.0,4.0,64,0.00,,,0.00,meteohub,2013-03-20 13:00:00,
2013-03-20 03:06:00,68.4,55.8,29.96,ENE,71,2.0,4.0,64,0.00,,,0.00,meteohub,2013-03-20 13:06:00,
2013-03-20 03:11:00,68.2,55.6,29.96,East,84,2.0,4.0,64,0.00,,,0.00,meteohub,2013-03-20 13:11:00,
2013-03-20 03:16:00,68.0,55.4,29.96,ENE,78,2.0,3.0,64,0.00,,,0.00,meteohub,2013-03-20 13:16:00,
2013-03-20 03:22:00,67.8,55.6,29.96,East,94,2.0,3.0,65,0.00,,,0.00,meteohub,2013-03-20 13:22:00,
2013-03-20 03:27:00,67.6,55.4,29.96,ESE,117,1.0,3.0,65,0.00,,,0.00,meteohub,2013-03-20 13:27:00,
2013-03-20 03:32:00,67.5,55.2,29.96,ESE,104,1.0,3.0,65,0.00,,,0.00,meteohub,2013-03-20 13:32:00,
2013-03-20 03:37:00,67.1,55.8,29.96,West,278,0.0,3.0,67,0.00,,,0.00,meteohub,2013-03-20 13:37:00,
2013-03-20 03:42:00,67.1,56.1,29.97,West,281,0.0,3.0,68,0.00,,,0.00,meteohub,2013-03-20 13:42:00,
2013-03-20 03:47:00,67.1,56.1,29.96,West,281,0.0,3.0,68,0.00,,,0.00,meteohub,2013-03-20 13:47:00,
2013-03-20 03:52:00,66.9,55.9,29.96,NE,52,1.0,1.0,68,0.00,,,0.00,meteohub,2013-03-20 13:52:00,
2013-03-20 03:57:00,67.3,55.9,29.96,ENE,78,1.0,1.0,67,0.00,,,0.00,meteohub,2013-03-20 13:57:00,
2013-03-20 04:03:00,66.7,55.0,29.96,East,94,3.0,3.0,66,0.00,,,0.00,meteohub,2013-03-20 14:03:00,
2013-03-20 04:08:00,66.6,55.2,29.97,ESE,104,2.0,3.0,67,0.00,,,0.00,meteohub,2013-03-20 14:08:00,
2013-03-20 04:13:00,66.0,55.2,29.97,ENE,77,2.0,3.0,68,0.00,,,0.00,meteohub,2013-03-20 14:13:00,
2013-03-20 04:18:00,66.0,55.6,29.97,ENE,72,2.0,3.0,69,0.00,,,0.00,meteohub,2013-03-20 14:18:00,
2013-03-20 04:24:00,65.8,55.4,29.97,ENE,78,3.0,3.0,69,0.00,,,0.00,meteohub,2013-03-20 14:24:00,
2013-03-20 04:29:00,66.0,55.9,29.97,ENE,78,3.0,3.0,70,0.00,,,0.00,meteohub,2013-03-20 14:29:00,
2013-03-20 04:34:00,66.0,55.6,29.97,ENE,74,4.0,4.0,69,0.00,,,0.00,meteohub,2013-03-20 14:34:00,
2013-03-20 04:40:00,66.0,55.9,29.97,East,82,4.0,4.0,70,0.00,,,0.00,meteohub,2013-03-20 14:40:00,
2013-03-20 04:45:00,66.2,56.1,29.97,East,90,3.0,4.0,70,0.00,,,0.00,meteohub,2013-03-20 14:45:00,
2013-03-20 04:50:00,66.0,55.9,29.97,ENE,77,3.0,4.0,70,0.00,,,0.00,meteohub,2013-03-20 14:50:00,
2013-03-20 04:55:00,66.4,56.7,29.98,ENE,77,3.0,4.0,71,0.00,,,0.00,meteohub,2013-03-20 14:55:00,
2013-03-20 05:00:00,66.2,56.5,29.98,East,84,2.0,4.0,71,0.00,,,0.00,meteohub,2013-03-20 15:00:00,
2013-03-20 05:06:00,66.2,56.8,29.98,ENE,78,3.0,3.0,72,0.00,,,0.00,meteohub,2013-03-20 15:06:00,
2013-03-20 05:12:00,66.6,56.8,29.98,East,79,2.0,4.0,71,0.00,,,0.00,meteohub,2013-03-20 15:12:00,
2013-03-20 05:17:00,67.1,57.0,29.98,ENE,62,2.0,4.0,70,0.00,,,0.00,meteohub,2013-03-20 15:17:00,
2013-03-20 05:22:00,67.5,57.4,29.98,ENE,75,1.0,4.0,70,0.00,,,0.00,meteohub,2013-03-20 15:22:00,
2013-03-20 05:27:00,67.5,57.0,29.99,East,89,2.0,3.0,69,0.00,,,0.00,meteohub,2013-03-20 15:27:00,
2013-03-20 05:32:00,67.6,57.0,29.99,ENE,74,1.0,3.0,69,0.00,,,0.00,meteohub,2013-03-20 15:32:00,
2013-03-20 05:37:00,67.8,57.2,29.99,East,81,2.0,3.0,69,0.00,,,0.00,meteohub,2013-03-20 15:37:00,
2013-03-20 05:42:00,68.0,57.4,29.99,East,85,0.0,2.0,69,0.00,,,0.00,meteohub,2013-03-20 15:42:00,
2013-03-20 05:47:00,68.2,57.6,29.99,East,85,1.0,2.0,69,0.00,,,0.00,meteohub,2013-03-20 15:47:00,
2013-03-20 05:52:00,68.4,57.4,29.99,ENE,75,1.0,2.0,68,0.00,,,0.00,meteohub,2013-03-20 15:52:00,
2013-03-20 05:57:00,68.5,57.2,29.99,East,84,0.0,2.0,67,0.00,,,0.00,meteohub,2013-03-20 15:57:00,
2013-03-20 06:03:00,68.7,57.4,30.00,East,84,0.0,2.0,67,0.00,,,0.00,meteohub,2013-03-20 16:03:00,
2013-03-20 06:08:00,68.7,57.4,30.00,East,84,1.0,2.0,67,0.00,,,0.00,meteohub,2013-03-20 16:08:00,
2013-03-20 06:13:00,69.1,57.7,30.00,ENE,78,1.0,1.0,67,0.00,,,0.00,meteohub,2013-03-20 16:13:00,
2013-03-20 06:18:00,68.9,57.6,30.00,East,81,1.0,2.0,67,0.00,,,0.00,meteohub,2013-03-20 16:18:00,
2013-03-20 06:24:00,68.7,57.4,30.00,East,100,1.0,2.0,67,0.00,,,0.00,meteohub,2013-03-20 16:24:00,
2013-03-20 06:29:00,68.7,57.4,30.00,East,79,1.0,2.0,67,0.00,,,0.00,meteohub,2013-03-20 16:29:00,
2013-03-20 06:34:00,68.7,57.4,30.01,ENE,77,2.0,2.0,67,0.00,,,0.00,meteohub,2013-03-20 16:34:00,
2013-03-20 06:39:00,68.7,57.4,30.01,ENE,75,1.0,2.0,67,0.00,,,0.00,meteohub,2013-03-20 16:39:00,
2013-03-20 06:45:00,69.1,57.7,30.01,ENE,78,1.0,2.0,67,0.00,,,0.00,meteohub,2013-03-20 16:45:00,
2013-03-20 06:50:00,69.1,57.2,30.01,East,86,1.0,2.0,66,0.00,,,0.00,meteohub,2013-03-20 16:50:00,
2013-03-20 06:55:00,69.3,57.4,30.01,East,84,2.0,2.0,66,0.00,,,0.00,meteohub,2013-03-20 16:55:00,
2013-03-20 07:00:00,69.3,57.4,30.01,ESE,106,2.0,2.0,66,0.00,,,0.00,meteohub,2013-03-20 17:00:00,
2013-03-20 07:06:00,69.1,57.2,30.01,East,86,2.0,3.0,66,0.00,,,0.00,meteohub,2013-03-20 17:06:00,
2013-03-20 07:11:00,69.1,57.2,30.02,East,89,1.0,3.0,66,0.00,,,0.00,meteohub,2013-03-20 17:11:00,
2013-03-20 07:17:00,69.1,57.2,30.02,East,84,1.0,3.0,66,0.00,,,0.00,meteohub,2013-03-20 17:17:00,
2013-03-20 07:22:00,68.7,57.4,30.02,East,88,2.0,2.0,67,0.00,,,0.00,meteohub,2013-03-20 17:22:00,
2013-03-20 07:27:00,68.7,57.4,30.02,East,96,2.0,2.0,67,0.00,,,0.00,meteohub,2013-03-20 17:27:00,
2013-03-20 07:32:00,69.3,57.4,30.03,East,85,2.0,2.0,66,0.00,,,0.00,meteohub,2013-03-20 17:32:00,
2013-03-20 07:37:00,70.3,58.1,30.03,East,96,2.0,2.0,65,0.00,,,0.00,meteohub,2013-03-20 17:37:00,
2013-03-20 07:42:00,71.6,58.8,30.03,East,96,0.0,2.0,64,0.00,,,0.00,meteohub,2013-03-20 17:42:00,
2013-03-20 07:48:00,72.9,59.0,30.03,East,96,0.0,2.0,62,0.00,,,0.00,meteohub,2013-03-20 17:48:00,
2013-03-20 07:53:00,73.6,58.8,30.03,NNE,32,1.0,2.0,60,0.00,,,0.00,meteohub,2013-03-20 17:53:00,
2013-03-20 07:58:00,73.2,58.5,30.03,NW,314,2.0,2.0,60,0.00,,,0.00,meteohub,2013-03-20 17:58:00,
2013-03-20 08:04:00,73.2,59.0,30.04,NW,323,1.0,2.0,61,0.00,,,0.00,meteohub,2013-03-20 18:04:00,
2013-03-20 08:09:00,73.2,58.5,30.04,NW,316,2.0,2.0,60,0.00,,,0.00,meteohub,2013-03-20 18:09:00,
2013-03-20 08:14:00,73.6,59.4,30.04,NW,309,1.0,2.0,61,0.00,,,0.00,meteohub,2013-03-20 18:14:00,
2013-03-20 08:19:00,73.8,59.0,30.04,NW,311,2.0,3.0,60,0.00,,,0.00,meteohub,2013-03-20 18:19:00,
2013-03-20 08:25:00,74.1,59.4,30.04,NNW,335,0.0,3.0,60,0.00,,,0.00,meteohub,2013-03-20 18:25:00,
2013-03-20 08:30:00,74.3,60.4,30.04,WNW,300,2.0,3.0,62,0.00,,,0.00,meteohub,2013-03-20 18:30:00,
2013-03-20 08:35:00,74.3,61.3,30.04,WNW,285,2.0,3.0,64,0.00,,,0.00,meteohub,2013-03-20 18:35:00,
2013-03-20 08:40:00,74.5,60.6,30.05,WNW,283,2.0,3.0,62,0.00,,,0.00,meteohub,2013-03-20 18:40:00,
2013-03-20 08:45:00,74.7,60.3,30.05,West,274,1.0,3.0,61,0.00,,,0.00,meteohub,2013-03-20 18:45:00,
2013-03-20 08:51:00,75.0,62.4,30.05,NW,308,3.0,3.0,65,0.00,,,0.00,meteohub,2013-03-20 18:51:00,
2013-03-20 08:57:00,75.0,63.0,30.05,WSW,250,3.0,4.0,66,0.00,,,0.00,meteohub,2013-03-20 18:57:00,
2013-03-20 09:02:00,75.0,63.0,30.05,WSW,239,3.0,4.0,66,0.00,,,0.00,meteohub,2013-03-20 19:02:00,
2013-03-20 09:07:00,75.0,63.0,30.06,WSW,245,3.0,4.0,66,0.00,,,0.00,meteohub,2013-03-20 19:07:00,
2013-03-20 09:13:00,74.8,62.8,30.06,WSW,248,4.0,4.0,66,0.00,,,0.00,meteohub,2013-03-20 19:13:00,
2013-03-20 09:18:00,74.8,63.5,30.05,WNW,284,3.0,5.0,68,0.00,,,0.00,meteohub,2013-03-20 19:18:00,
2013-03-20 09:23:00,74.7,62.6,30.05,WNW,293,3.0,5.0,66,0.00,,,0.00,meteohub,2013-03-20 19:23:00,
2013-03-20 09:28:00,74.8,63.1,30.05,West,259,3.0,5.0,67,0.00,,,0.00,meteohub,2013-03-20 19:28:00,
2013-03-20 09:34:00,75.0,63.3,30.05,West,273,3.0,5.0,67,0.00,,,0.00,meteohub,2013-03-20 19:34:00,
2013-03-20 09:39:00,75.0,62.4,30.05,WNW,284,3.0,5.0,65,0.00,,,0.00,meteohub,2013-03-20 19:39:00,
2013-03-20 09:44:00,75.0,63.0,30.05,West,267,2.0,6.0,66,0.00,,,0.00,meteohub,2013-03-20 19:44:00,
2013-03-20 09:49:00,75.0,63.3,30.05,West,278,4.0,6.0,67,0.00,,,0.00,meteohub,2013-03-20 19:49:00,
2013-03-20 09:54:00,74.8,62.8,30.05,WNW,283,4.0,6.0,66,0.00,,,0.00,meteohub,2013-03-20 19:54:00,
2013-03-20 09:59:00,75.0,63.0,30.05,WNW,287,2.0,6.0,66,0.00,,,0.00,meteohub,2013-03-20 19:59:00,
2013-03-20 10:05:00,75.4,63.1,30.05,West,280,3.0,5.0,66,0.00,,,0.00,meteohub,2013-03-20 20:05:00,
2013-03-20 10:10:00,75.6,62.6,30.05,WSW,255,3.0,6.0,64,0.00,,,0.00,meteohub,2013-03-20 20:10:00,
2013-03-20 10:15:00,75.6,62.6,30.04,WNW,291,3.0,6.0,64,0.00,,,0.00,meteohub,2013-03-20 20:15:00,
2013-03-20 10:20:00,75.6,63.0,30.04,WSW,251,4.0,6.0,65,0.00,,,0.00,meteohub,2013-03-20 20:20:00,
2013-03-20 10:25:00,75.4,62.4,30.04,NW,308,4.0,7.0,64,0.00,,,0.00,meteohub,2013-03-20 20:25:00,
2013-03-20 10:30:00,75.6,63.9,30.04,West,281,3.0,7.0,67,0.00,,,0.00,meteohub,2013-03-20 20:30:00,
2013-03-20 10:36:00,75.4,63.7,30.04,West,278,6.0,7.0,67,0.00,,,0.00,meteohub,2013-03-20 20:36:00,
2013-03-20 10:42:00,75.6,64.2,30.04,WNW,290,3.0,8.0,68,0.00,,,0.00,meteohub,2013-03-20 20:42:00,
2013-03-20 10:47:00,75.7,64.4,30.04,WNW,284,6.0,8.0,68,0.00,,,0.00,meteohub,2013-03-20 20:47:00,
2013-03-20 10:52:00,75.7,64.8,30.04,WNW,302,4.0,8.0,69,0.00,,,0.00,meteohub,2013-03-20 20:52:00,
2013-03-20 10:57:00,75.7,65.7,30.04,WNW,300,4.0,8.0,71,0.00,,,0.00,meteohub,2013-03-20 20:57:00,
2013-03-20 11:02:00,76.3,66.6,30.04,WSW,255,4.0,8.0,72,0.00,,,0.00,meteohub,2013-03-20 21:02:00,
2013-03-20 11:07:00,76.5,66.4,30.04,West,278,4.0,6.0,71,0.00,,,0.00,meteohub,2013-03-20 21:07:00,
2013-03-20 11:13:00,76.6,66.9,30.04,WNW,302,5.0,7.0,72,0.00,,,0.00,meteohub,2013-03-20 21:13:00,
2013-03-20 11:18:00,76.6,66.6,30.04,WNW,291,7.0,10.0,71,0.00,,,0.00,meteohub,2013-03-20 21:18:00,
2013-03-20 11:23:00,77.2,67.8,30.03,SSE,149,4.0,10.0,73,0.00,,,0.00,meteohub,2013-03-20 21:23:00,
2013-03-20 11:28:00,77.4,67.3,30.03,NW,323,7.0,10.0,71,0.00,,,0.00,meteohub,2013-03-20 21:28:00,
2013-03-20 11:33:00,77.5,64.8,30.03,West,275,8.0,9.0,65,0.00,,,0.00,meteohub,2013-03-20 21:33:00,
2013-03-20 11:39:00,77.4,66.0,30.03,NW,315,8.0,10.0,68,0.00,,,0.00,meteohub,2013-03-20 21:39:00,
2013-03-20 11:44:00,77.7,64.6,30.02,NW,309,7.0,10.0,64,0.00,,,0.00,meteohub,2013-03-20 21:44:00,
2013-03-20 11:49:00,78.3,65.1,30.02,WNW,300,4.0,10.0,64,0.00,,,0.00,meteohub,2013-03-20 21:49:00,
2013-03-20 11:54:00,78.3,67.3,30.02,WNW,302,6.0,9.0,69,0.00,,,0.00,meteohub,2013-03-20 21:54:00,
2013-03-20 11:59:00,77.9,66.9,30.02,WNW,288,4.0,10.0,69,0.00,,,0.00,meteohub,2013-03-20 21:59:00,
2013-03-20 12:04:00,78.1,67.5,30.02,WNW,292,5.0,10.0,70,0.00,,,0.00,meteohub,2013-03-20 22:04:00,
2013-03-20 12:09:00,78.1,67.1,30.02,NW,321,2.0,10.0,69,0.00,,,0.00,meteohub,2013-03-20 22:09:00,
2013-03-20 12:14:00,78.1,66.7,30.01,NW,307,1.0,9.0,68,0.00,,,0.00,meteohub,2013-03-20 22:14:00,
2013-03-20 12:20:00,78.4,66.6,30.01,WNW,291,2.0,8.0,67,0.00,,,0.00,meteohub,2013-03-20 22:20:00,
2013-03-20 12:25:00,78.4,66.6,30.01,West,276,4.0,5.0,67,0.00,,,0.00,meteohub,2013-03-20 22:25:00,
2013-03-20 12:30:00,78.1,66.2,30.01,West,280,1.0,5.0,67,0.00,,,0.00,meteohub,2013-03-20 22:30:00,
2013-03-20 12:36:00,78.1,66.7,30.00,West,276,1.0,6.0,68,0.00,,,0.00,meteohub,2013-03-20 22:36:00,
2013-03-20 12:41:00,78.1,66.2,30.00,NW,316,1.0,6.0,67,0.00,,,0.00,meteohub,2013-03-20 22:41:00,
2013-03-20 12:46:00,78.4,66.6,30.00,ESE,117,1.0,3.0,67,0.00,,,0.00,meteohub,2013-03-20 22:46:00,
2013-03-20 12:51:00,78.8,64.2,30.00,WSW,256,5.0,7.0,61,0.00,,,0.00,meteohub,2013-03-20 22:51:00,
2013-03-20 12:56:00,79.5,64.9,30.00,SSE,167,2.0,10.0,61,0.00,,,0.00,meteohub,2013-03-20 22:56:00,
2013-03-20 13:01:00,78.6,65.5,30.00,NE,53,2.0,10.0,64,0.00,,,0.00,meteohub,2013-03-20 23:01:00,
2013-03-20 13:07:00,78.6,65.8,30.00,NE,39,3.0,12.0,65,0.00,,,0.00,meteohub,2013-03-20 23:07:00,
2013-03-20 13:12:00,78.8,65.1,29.99,NW,326,0.0,12.0,63,0.00,,,0.00,meteohub,2013-03-20 23:12:00,
2013-03-20 13:17:00,79.3,60.3,29.99,WSW,250,1.0,7.0,52,0.00,,,0.00,meteohub,2013-03-20 23:17:00,
2013-03-20 13:22:00,80.1,57.4,29.99,SW,224,5.0,6.0,46,0.00,,,0.00,meteohub,2013-03-20 23:22:00,
2013-03-20 13:28:00,80.4,57.7,29.99,SSW,207,1.0,8.0,46,0.00,,,0.00,meteohub,2013-03-20 23:28:00,
2013-03-20 13:33:00,80.6,59.2,29.99,WSW,249,3.0,8.0,48,0.00,,,0.00,meteohub,2013-03-20 23:33:00,
2013-03-20 13:38:00,80.4,56.5,29.99,SSW,212,4.0,10.0,44,0.00,,,0.00,meteohub,2013-03-20 23:38:00,
2013-03-20 13:43:00,80.1,62.4,29.99,WSW,252,10.0,12.0,55,0.00,,,0.00,meteohub,2013-03-20 23:43:00,
2013-03-20 13:48:00,79.7,64.0,29.99,SW,232,6.0,14.0,59,0.00,,,0.00,meteohub,2013-03-20 23:48:00,
2013-03-20 13:53:00,79.5,65.8,29.99,SSW,204,5.0,14.0,63,0.00,,,0.00,meteohub,2013-03-20 23:53:00,
2013-03-20 13:59:00,79.0,65.8,29.99,South,172,7.0,14.0,64,0.00,,,0.00,meteohub,2013-03-20 23:59:00,
2013-03-20 14:04:00,78.8,66.0,29.99,SSE,149,5.0,16.0,65,0.00,,,0.00,meteohub,2013-03-21 00:04:00,
2013-03-20 14:09:00,78.8,65.7,29.99,ESE,118,5.0,16.0,64,0.00,,,0.00,meteohub,2013-03-21 00:09:00,
2013-03-20 14:14:00,79.3,65.7,29.98,SSW,199,5.0,15.0,63,0.00,,,0.00,meteohub,2013-03-21 00:14:00,
2013-03-20 14:19:00,79.5,64.9,29.98,South,170,4.0,13.0,61,0.00,,,0.00,meteohub,2013-03-21 00:19:00,
2013-03-20 14:24:00,79.5,63.9,29.98,South,175,4.0,13.0,59,0.00,,,0.00,meteohub,2013-03-21 00:24:00,
2013-03-20 14:30:00,79.2,64.0,29.98,ESE,123,4.0,15.0,60,0.00,,,0.00,meteohub,2013-03-21 00:30:00,
2013-03-20 14:35:00,78.6,64.6,29.98,South,170,4.0,15.0,62,0.00,,,0.00,meteohub,2013-03-21 00:35:00,
2013-03-20 14:41:00,78.1,65.3,29.99,SE,136,5.0,15.0,65,0.00,,,0.00,meteohub,2013-03-21 00:41:00,
2013-03-20 14:46:00,77.5,64.4,29.99,SSE,163,5.0,18.0,64,0.00,,,0.00,meteohub,2013-03-21 00:46:00,
2013-03-20 14:52:00,77.0,63.5,29.99,SSE,165,10.0,18.0,63,0.00,,,0.00,meteohub,2013-03-21 00:52:00,
2013-03-20 14:57:00,76.6,63.5,29.99,SSE,162,6.0,17.0,64,0.00,,,0.00,meteohub,2013-03-21 00:57:00,
2013-03-20 15:02:00,76.8,64.6,29.99,East,98,4.0,14.0,66,0.00,,,0.00,meteohub,2013-03-21 01:02:00,
2013-03-20 15:07:00,76.8,64.6,29.99,SSE,152,7.0,14.0,66,0.00,,,0.00,meteohub,2013-03-21 01:07:00,
2013-03-20 15:12:00,76.6,64.9,29.99,SSE,167,4.0,13.0,67,0.00,,,0.00,meteohub,2013-03-21 01:12:00,
2013-03-20 15:17:00,76.8,65.5,29.99,SW,235,7.0,13.0,68,0.00,,,0.00,meteohub,2013-03-21 01:17:00,
2013-03-20 15:22:00,76.1,66.4,29.99,SW,219,12.0,15.0,72,0.00,,,0.00,meteohub,2013-03-21 01:22:00,
2013-03-20 15:27:00,75.6,66.4,29.99,WSW,240,11.0,15.0,73,0.00,,,0.00,meteohub,2013-03-21 01:27:00,
2013-03-20 15:33:00,75.4,66.6,29.99,West,259,2.0,15.0,74,0.00,,,0.00,meteohub,2013-03-21 01:33:00,
2013-03-20 15:38:00,75.2,66.0,29.99,WSW,238,4.0,13.0,73,0.00,,,0.00,meteohub,2013-03-21 01:38:00,
2013-03-20 15:43:00,74.8,65.7,29.99,SSW,202,12.0,12.0,73,0.00,,,0.00,meteohub,2013-03-21 01:43:00,
2013-03-20 15:48:00,74.5,65.3,30.00,South,186,2.0,15.0,73,0.00,,,0.00,meteohub,2013-03-21 01:48:00,
2013-03-20 15:53:00,74.7,65.5,30.00,South,169,5.0,15.0,73,0.00,,,0.00,meteohub,2013-03-21 01:53:00,
2013-03-20 15:58:00,74.8,64.8,30.00,SSW,205,4.0,15.0,71,0.00,,,0.00,meteohub,2013-03-21 01:58:00,
2013-03-20 16:04:00,75.0,64.6,30.00,SW,221,2.0,14.0,70,0.00,,,0.00,meteohub,2013-03-21 02:04:00,
2013-03-20 16:09:00,75.4,64.6,29.99,SW,219,7.0,12.0,69,0.00,,,0.00,meteohub,2013-03-21 02:09:00,
2013-03-20 16:14:00,75.7,63.5,29.99,SW,219,5.0,12.0,66,0.00,,,0.00,meteohub,2013-03-21 02:14:00,
2013-03-20 16:19:00,76.3,64.0,30.00,SSE,155,5.0,12.0,66,0.00,,,0.00,meteohub,2013-03-21 02:19:00,
2013-03-20 16:25:00,76.3,64.6,29.99,South,174,11.0,14.0,67,0.00,,,0.00,meteohub,2013-03-21 02:25:00,
2013-03-20 16:30:00,75.7,65.3,30.00,SSE,159,8.0,14.0,70,0.00,,,0.00,meteohub,2013-03-21 02:30:00,
2013-03-20 16:35:00,75.7,65.7,30.00,SW,217,8.0,14.0,71,0.00,,,0.00,meteohub,2013-03-21 02:35:00,
2013-03-20 16:40:00,75.4,66.2,30.00,SE,124,7.0,14.0,73,0.00,,,0.00,meteohub,2013-03-21 02:40:00,
2013-03-20 16:46:00,75.7,66.4,29.99,SSE,159,7.0,13.0,73,0.00,,,0.00,meteohub,2013-03-21 02:46:00,
2013-03-20 16:51:00,75.9,65.8,29.99,WSW,248,8.0,14.0,71,0.00,,,0.00,meteohub,2013-03-21 02:51:00,
2013-03-20 16:56:00,75.6,65.5,29.99,SW,215,7.0,14.0,71,0.00,,,0.00,meteohub,2013-03-21 02:56:00,
2013-03-20 17:01:00,75.7,65.3,29.99,SW,236,3.0,14.0,70,0.00,,,0.00,meteohub,2013-03-21 03:01:00,
2013-03-20 17:07:00,76.3,64.0,29.99,SW,226,4.0,14.0,66,0.00,,,0.00,meteohub,2013-03-21 03:07:00,
2013-03-20 17:12:00,77.4,64.8,29.99,SSE,149,3.0,14.0,65,0.00,,,0.00,meteohub,2013-03-21 03:12:00,
2013-03-20 17:17:00,77.2,63.7,29.99,South,171,8.0,14.0,63,0.00,,,0.00,meteohub,2013-03-21 03:17:00,
2013-03-20 17:23:00,76.8,63.7,29.99,South,174,5.0,12.0,64,0.00,,,0.00,meteohub,2013-03-21 03:23:00,
2013-03-20 17:28:00,76.8,63.7,29.99,SSW,204,5.0,12.0,64,0.00,,,0.00,meteohub,2013-03-21 03:28:00,
2013-03-20 17:33:00,76.6,63.5,29.99,South,176,5.0,12.0,64,0.00,,,0.00,meteohub,2013-03-21 03:33:00,
2013-03-20 17:38:00,76.6,64.0,29.99,West,266,7.0,12.0,65,0.00,,,0.00,meteohub,2013-03-21 03:38:00,
2013-03-20 17:43:00,76.3,64.0,30.00,WSW,250,8.0,12.0,66,0.00,,,0.00,meteohub,2013-03-21 03:43:00,
2013-03-20 17:48:00,75.6,65.5,30.00,SSW,209,7.0,12.0,71,0.00,,,0.00,meteohub,2013-03-21 03:48:00,
2013-03-20 17:53:00,75.0,65.8,30.00,West,260,5.0,12.0,73,0.00,,,0.00,meteohub,2013-03-21 03:53:00,
2013-03-20 17:59:00,74.7,65.8,30.00,WSW,240,11.0,13.0,74,0.00,,,0.00,meteohub,2013-03-21 03:59:00,
2013-03-20 18:00:00,74.7,65.8,30.00,SW,225,4.0,13.0,74,0.00,,,0.00,meteohub,2013-03-21 04:00:00,
2013-03-20 18:01:00,74.7,66.2,30.00,WSW,246,8.0,13.0,75,0.00,,,0.00,meteohub,2013-03-21 04:01:00,
2013-03-20 18:02:00,74.7,65.8,30.00,SW,219,6.0,13.0,74,0.00,,,0.00,meteohub,2013-03-21 04:02:00,
2013-03-20 18:07:00,74.7,65.5,30.01,WSW,242,12.0,15.0,73,0.00,,,0.00,meteohub,2013-03-21 04:07:00,
2013-03-20 18:12:00,74.8,64.4,30.01,SSW,198,3.0,15.0,70,0.00,,,0.00,meteohub,2013-03-21 04:12:00,
2013-03-20 18:17:00,75.4,63.7,30.01,WSW,250,3.0,15.0,67,0.00,,,0.00,meteohub,2013-03-21 04:17:00,
2013-03-20 18:22:00,75.7,63.1,30.01,SE,127,4.0,15.0,65,0.00,,,0.00,meteohub,2013-03-21 04:22:00,
2013-03-20 18:27:00,76.1,63.0,30.02,ESE,120,1.0,15.0,64,0.00,,,0.00,meteohub,2013-03-21 04:27:00,
2013-03-20 18:32:00,76.5,62.1,30.02,South,181,4.0,15.0,61,0.00,,,0.00,meteohub,2013-03-21 04:32:00,
2013-03-20 18:38:00,76.5,62.1,30.02,ENE,68,0.0,9.0,61,0.00,,,0.00,meteohub,2013-03-21 04:38:00,
2013-03-20 18:43:00,76.5,62.1,30.02,South,184,2.0,9.0,61,0.00,,,0.00,meteohub,2013-03-21 04:43:00,
2013-03-20 18:48:00,76.3,61.9,30.02,WSW,245,0.0,8.0,61,0.00,,,0.00,meteohub,2013-03-21 04:48:00,
2013-03-20 18:53:00,76.1,63.5,30.02,ENE,68,1.0,5.0,65,0.00,,,0.00,meteohub,2013-03-21 04:53:00,
2013-03-20 18:59:00,75.9,64.6,30.02,WSW,254,1.0,4.0,68,0.00,,,0.00,meteohub,2013-03-21 04:59:00,
2013-03-20 19:04:00,75.6,64.8,30.02,West,274,1.0,2.0,69,0.00,,,0.00,meteohub,2013-03-21 05:04:00,
2013-03-20 19:09:00,75.4,64.6,30.02,NNW,330,3.0,3.0,69,0.00,,,0.00,meteohub,2013-03-21 05:09:00,
2013-03-20 19:14:00,75.2,64.8,30.02,NNW,332,3.0,4.0,70,0.00,,,0.00,meteohub,2013-03-21 05:14:00,
2013-03-20 19:19:00,75.0,64.9,30.02,NW,304,2.0,4.0,71,0.00,,,0.00,meteohub,2013-03-21 05:19:00,
2013-03-20 19:24:00,74.8,65.1,30.03,NW,323,1.0,4.0,72,0.00,,,0.00,meteohub,2013-03-21 05:24:00,
2013-03-20 19:29:00,74.7,65.5,30.03,WNW,298,1.0,3.0,73,0.00,,,0.00,meteohub,2013-03-21 05:29:00,
2013-03-20 19:35:00,74.7,65.5,30.03,NW,326,1.0,3.0,73,0.00,,,0.00,meteohub,2013-03-21 05:35:00,
2013-03-20 19:40:00,74.5,65.7,30.03,NE,41,1.0,3.0,74,0.00,,,0.00,meteohub,2013-03-21 05:40:00,
2013-03-20 19:45:00,74.5,66.0,30.03,ENE,58,2.0,4.0,75,0.00,,,0.00,meteohub,2013-03-21 05:45:00,
2013-03-20 19:50:00,74.1,65.7,30.03,NE,53,3.0,5.0,75,0.00,,,0.00,meteohub,2013-03-21 05:50:00,
2013-03-20 19:55:00,73.9,65.5,30.04,North,11,1.0,5.0,75,0.00,,,0.00,meteohub,2013-03-21 05:55:00,
2013-03-20 20:00:00,73.9,65.8,30.04,NNE,27,2.0,6.0,76,0.00,,,0.00,meteohub,2013-03-21 06:00:00,
2013-03-20 20:06:00,73.9,65.8,30.04,NNE,30,1.0,6.0,76,0.00,,,0.00,meteohub,2013-03-21 06:06:00,
2013-03-20 20:12:00,73.9,65.8,30.04,NE,47,2.0,6.0,76,0.00,,,0.00,meteohub,2013-03-21 06:12:00,
2013-03-20 20:17:00,73.9,65.8,30.04,NNE,27,1.0,3.0,76,0.00,,,0.00,meteohub,2013-03-21 06:17:00,
2013-03-20 20:22:00,73.9,65.8,30.05,NNE,32,2.0,4.0,76,0.00,,,0.00,meteohub,2013-03-21 06:22:00,
2013-03-20 20:27:00,73.8,65.7,30.05,ENE,61,1.0,4.0,76,0.00,,,0.00,meteohub,2013-03-21 06:27:00,
2013-03-20 20:33:00,73.8,65.7,30.05,NE,47,0.0,3.0,76,0.00,,,0.00,meteohub,2013-03-21 06:33:00,
2013-03-20 20:38:00,73.8,65.7,30.05,NNW,341,0.0,3.0,76,0.00,,,0.00,meteohub,2013-03-21 06:38:00,
2013-03-20 20:43:00,73.6,65.5,30.05,NNW,343,0.0,3.0,76,0.00,,,0.00,meteohub,2013-03-21 06:43:00,
2013-03-20 20:49:00,73.6,65.5,30.05,NNW,343,0.0,2.0,76,0.00,,,0.00,meteohub,2013-03-21 06:49:00,
2013-03-20 20:54:00,73.6,65.5,30.06,NE,36,0.0,2.0,76,0.00,,,0.00,meteohub,2013-03-21 06:54:00,
2013-03-20 20:59:00,73.4,65.3,30.06,ENE,63,1.0,1.0,76,0.00,,,0.00,meteohub,2013-03-21 06:59:00,
2013-03-20 21:04:00,73.4,65.3,30.06,ENE,63,0.0,2.0,76,0.00,,,0.00,meteohub,2013-03-21 07:04:00,
2013-03-20 21:10:00,73.2,65.1,30.06,NE,47,0.0,2.0,76,0.00,,,0.00,meteohub,2013-03-21 07:10:00,
2013-03-20 21:15:00,73.4,65.3,30.06,NE,47,0.0,3.0,76,0.00,,,0.00,meteohub,2013-03-21 07:15:00,
2013-03-20 21:20:00,73.2,65.1,30.06,NE,46,0.0,3.0,76,0.00,,,0.00,meteohub,2013-03-21 07:20:00,
2013-03-20 21:26:00,73.2,65.1,30.06,NE,47,0.0,1.0,76,0.00,,,0.00,meteohub,2013-03-21 07:26:00,
2013-03-20 21:32:00,73.0,64.9,30.06,SSE,165,0.0,1.0,76,0.00,,,0.00,meteohub,2013-03-21 07:32:00,
2013-03-20 21:37:00,72.9,64.8,30.06,SSE,165,0.0,1.0,76,0.00,,,0.00,meteohub,2013-03-21 07:37:00,
2013-03-20 21:42:00,72.9,65.3,30.06,SSE,163,0.0,1.0,77,0.00,,,0.00,meteohub,2013-03-21 07:42:00,
2013-03-20 21:47:00,72.7,65.1,30.06,West,271,0.0,1.0,77,0.00,,,0.00,meteohub,2013-03-21 07:47:00,
2013-03-20 21:52:00,73.0,65.5,30.06,West,271,0.0,1.0,77,0.00,,,0.00,meteohub,2013-03-21 07:52:00,
2013-03-20 21:57:00,72.9,65.3,30.06,West,271,0.0,1.0,77,0.00,,,0.00,meteohub,2013-03-21 07:57:00,
2013-03-20 22:03:00,72.3,64.4,30.06,East,84,2.0,2.0,76,0.00,,,0.00,meteohub,2013-03-21 08:03:00,
2013-03-20 22:08:00,72.1,64.6,30.06,East,84,1.0,2.0,77,0.00,,,0.00,meteohub,2013-03-21 08:08:00,
2013-03-20 22:13:00,71.8,64.2,30.06,East,80,2.0,2.0,77,0.00,,,0.00,meteohub,2013-03-21 08:13:00,
2013-03-20 22:18:00,71.6,64.0,30.06,ENE,77,2.0,2.0,77,0.00,,,0.00,meteohub,2013-03-21 08:18:00,
2013-03-20 22:23:00,71.6,64.4,30.06,ENE,73,2.0,2.0,78,0.00,,,0.00,meteohub,2013-03-21 08:23:00,
2013-03-20 22:29:00,71.6,64.4,30.06,ENE,77,0.0,2.0,78,0.00,,,0.00,meteohub,2013-03-21 08:29:00,
2013-03-20 22:34:00,71.4,64.6,30.06,East,86,0.0,2.0,79,0.00,,,0.00,meteohub,2013-03-21 08:34:00,
2013-03-20 22:39:00,71.2,64.4,30.06,ENE,73,1.0,2.0,79,0.00,,,0.00,meteohub,2013-03-21 08:39:00,
2013-03-20 22:44:00,71.4,64.2,30.05,ENE,73,2.0,2.0,78,0.00,,,0.00,meteohub,2013-03-21 08:44:00,
2013-03-20 22:50:00,71.2,64.0,30.05,East,84,1.0,2.0,78,0.00,,,0.00,meteohub,2013-03-21 08:50:00,
2013-03-20 22:55:00,71.1,63.5,30.06,East,94,1.0,2.0,77,0.00,,,0.00,meteohub,2013-03-21 08:55:00,
2013-03-20 23:00:00,71.2,64.0,30.05,ENE,78,1.0,2.0,78,0.00,,,0.00,meteohub,2013-03-21 09:00:00,
2013-03-20 23:05:00,71.1,63.9,30.05,ENE,72,1.0,2.0,78,0.00,,,0.00,meteohub,2013-03-21 09:05:00,
2013-03-20 23:11:00,71.1,63.5,30.05,East,79,2.0,2.0,77,0.00,,,0.00,meteohub,2013-03-21 09:11:00,
2013-03-20 23:16:00,70.9,63.3,30.05,East,79,1.0,2.0,77,0.00,,,0.00,meteohub,2013-03-21 09:16:00,
2013-03-20 23:21:00,71.1,63.1,30.05,East,101,1.0,2.0,76,0.00,,,0.00,meteohub,2013-03-21 09:21:00,
2013-03-20 23:26:00,71.1,63.5,30.05,East,82,1.0,2.0,77,0.00,,,0.00,meteohub,2013-03-21 09:26:00,
2013-03-20 23:31:00,71.4,63.9,30.05,East,80,1.0,2.0,77,0.00,,,0.00,meteohub,2013-03-21 09:31:00,
2013-03-20 23:36:00,71.4,63.5,30.05,ENE,72,0.0,2.0,76,0.00,,,0.00,meteohub,2013-03-21 09:36:00,
2013-03-20 23:41:00,71.8,63.9,30.05,NNE,32,0.0,2.0,76,0.00,,,0.00,meteohub,2013-03-21 09:41:00,
2013-03-20 23:46:00,72.0,64.0,30.05,NNE,29,0.0,2.0,76,0.00,,,0.00,meteohub,2013-03-21 09:46:00,
2013-03-20 23:51:00,72.1,64.2,30.05,ENE,68,1.0,2.0,76,0.00,,,0.00,meteohub,2013-03-21 09:51:00,
2013-03-20 23:56:00,72.0,63.7,30.04,NE,50,1.0,2.0,75,0.00,,,0.00,meteohub,2013-03-21 09:56:00,